Lapse_Rate
6.2 6.2 6.2 5.9 5.9 6.0 6.1 6.2 6.1 6.1 6.1 6.2 6.2 6.2 6.3 6.4 6.4 6.4 6.3 6.3 6.4 6.4 6.4 6.3 6.2 6.1 6.4 6.7 8.1 5.5 6.7 6.2 6.3 6.2 5.9 5.4 5.3 5.1 5.0 4.8 4.8 4.7 5.9 6.0 6.1 5.8 6.0
5.8 5.7 5.8 5.9 6.0 6.0 5.9 5.9 5.8 5.9 6.0 6.1 6.1 6.0 6.1 6.1 6.1 6.2 6.2 6.3 6.4 6.3 6.2 6.3 6.3 6.1 6.0 6.7 7.1 6.6 6.6 6.6 6.4 6.1 5.9 5.6 5.6 5.2 4.7 4.8 4.8 5.3 5.7 6.1 6.0 6.2 6.2
5.3 5.3 5.3 5.4 5.5 5.5 5.7 5.9 6.1 6.1 6.2 6.2 6.1 6.0 5.9 5.9 5.9 5.9 6.0 6.0 6.0 5.9 6.1 6.2 6.3 6.0 6.0 7.2 7.0 6.3 6.6 6.6 6.2 6.1 6.1 5.7 5.3 5.1 4.9 5.0 5.1 5.3 5.6 6.0 6.1 6.2 6.2
5.3 5.3 5.4 5.5 5.6 5.7 6.0 6.0 6.0 5.8 5.7 5.7 5.6 5.6 5.6 5.6 5.6 5.6 5.7 5.8 5.8 5.7 5.9 6.0 6.0 5.8 5.8 6.8 6.9 7.0 6.4 6.5 6.5 6.3 6.1 5.7 5.3 5.2 5.1 5.2 5.1 5.5 5.7 5.8 6.6 6.4 6.2
5.3 5.5 5.5 5.6 5.9 5.9 6.0 5.9 5.8 5.8 5.7 5.7 5.5 5.5 5.4 5.6 5.7 5.5 5.7 5.8 5.9 5.9 5.9 5.9 5.8 5.7 5.7 6.0 6.9 6.9 6.6 7.3 6.2 5.9 5.7 5.4 5.2 5.4 5.1 5.4 5.4 5.4 5.5 6.0 6.4 6.6 6.5
5.3 5.5 5.5 5.6 5.8 5.9 5.8 5.7 5.6 5.6 5.6 5.6 5.5 5.5 5.5 5.5 5.4 5.3 5.3 5.4 5.5 5.8 5.8 5.8 5.7 5.6 5.7 5.7 5.9 6.3 6.6 7.0 6.6 5.8 5.5 5.7 5.3 5.2 5.3 5.7 5.7 6.0 5.6 6.2 6.6 6.9 6.5
5.4 5.5 5.8 5.9 5.9 6.0 5.8 5.7 5.7 5.6 5.5 5.3 5.2 5.2 5.1 5.4 5.3 5.2 5.3 5.6 5.7 5.6 5.8 5.9 5.7 5.9 5.6 5.7 5.8 6.0 6.3 6.3 6.1 5.6 5.5 5.7 5.2 5.0 5.8 5.8 5.8 6.0 5.9 6.6 7.1 7.3 6.8
5.8 5.9 5.9 5.8 5.7 5.6 5.6 5.5 5.3 5.4 5.3 5.2 5.0 4.8 4.9 5.3 5.6 5.7 5.7 5.7 5.7 5.3 5.9 6.4 5.8 5.4 6.2 5.8 5.4 5.3 5.8 5.8 5.8 6.0 5.3 5.2 5.0 5.4 5.6 5.7 5.8 6.0 6.1 6.2 6.7 6.9 6.8
5.9 5.8 5.8 5.7 5.6 5.5 5.5 5.2 5.1 5.0 5.0 5.1 5.3 4.9 5.1 5.2 5.5 5.7 5.6 5.5 5.0 4.7 4.6 6.0 5.8 6.4 6.4 6.0 5.9 5.1 5.3 5.6 5.7 5.8 4.9 5.3 5.3 6.5 5.6 5.8 5.6 5.9 5.7 6.3 6.1 6.8 7.0
5.7 5.8 5.7 5.5 5.5 5.3 5.2 5.0 4.8 4.7 4.6 4.6 5.0 5.0 4.8 5.0 5.2 5.5 5.1 5.1 5.0 4.3 4.2 5.3 5.7 5.1 6.1 6.0 5.6 6.3 5.1 5.2 5.1 5.3 5.6 5.3 5.6 6.2 5.6 5.6 6.0 5.4 6.3 6.2 6.3 6.6 6.4
5.3 5.1 4.8 4.8 4.7 4.5 4.4 4.1 4.2 4.2 4.3 4.3 4.4 4.6 4.4 4.5 4.9 5.0 5.3 5.3 5.0 4.3 3.6 5.9 5.9 5.9 5.7 6.2 6.0 6.3 6.5 5.4 5.3 5.3 5.3 4.8 5.5 6.2 5.8 5.9 6.6 5.9 6.5 6.6 6.8 6.5 6.2
4.6 4.6 4.5 4.4 4.3 4.2 4.2 4.1 4.0 3.7 3.6 3.8 3.8 4.0 3.9 4.0 4.6 4.7 4.8 4.7 4.7 4.6 3.5 6.8 6.5 6.2 5.7 5.9 6.0 6.3 6.5 5.6 5.3 5.3 5.1 5.5 5.9 5.9 5.9 6.3 6.2 6.4 6.0 6.6 6.5 6.4 6.6
4.8 4.8 4.7 4.5 4.1 4.1 4.3 4.0 3.8 3.5 3.3 3.0 2.9 2.8 3.0 2.6 3.6 3.8 4.1 4.2 4.5 4.1 5.9 6.7 6.5 5.9 5.3 5.6 6.0 6.3 6.4 5.6 5.7 5.7 5.2 5.4 5.5 5.7 5.9 5.8 5.9 5.5 5.9 6.2 6.8 6.7 6.7
4.6 4.6 4.5 4.3 4.3 4.2 4.4 4.0 3.6 3.1 2.7 2.1 1.7 1.9 2.6 2.2 2.7 2.9 3.1 3.8 4.2 5.2 5.6 6.4 6.0 6.2 5.8 6.0 6.2 6.6 6.2 6.1 5.8 5.6 5.8 5.4 5.1 5.3 5.5 5.4 5.9 6.0 6.1 6.4 6.9 6.7 6.5
4.3 4.2 4.1 4.0 4.0 3.8 4.0 3.4 3.0 2.7 1.9 1.9 2.0 2.2 2.4 2.6 2.8 2.9 3.6 4.2 5.1 5.9 5.6 5.6 6.2 6.2 6.2 6.2 6.2 6.8 6.3 6.2 6.5 5.9 5.8 5.8 5.4 6.2 6.5 6.1 6.0 5.9 5.9 6.7 6.5 6.0 6.2
4.2 4.1 4.0 3.9 3.7 3.7 3.2 2.8 2.2 1.9 2.2 2.5 2.2 2.4 2.7 2.8 3.4 4.4 4.8 5.3 6.4 6.6 6.2 6.2 5.8 6.1 5.8 5.9 5.9 6.5 6.7 6.4 6.4 6.6 6.6 6.3 5.9 6.4 6.6 6.2 6.1 6.1 6.7 6.6 6.7 6.8 6.4
4.0 4.0 3.9 3.9 3.9 3.2 2.2 1.7 1.9 2.2 2.6 2.6 2.5 2.7 3.9 4.5 5.3 5.9 6.3 6.5 6.8 7.0 6.6 6.2 6.4 6.7 6.5 6.4 6.4 6.3 6.8 6.6 6.4 6.5 6.2 6.3 6.2 6.2 6.7 6.2 6.2 6.2 6.2 6.6 6.7 7.1 6.1
4.2 3.9 3.7 3.6 2.9 2.0 1.7 1.9 2.2 2.5 2.8 2.9 3.2 4.2 5.5 6.0 6.3 6.9 7.1 7.0 7.1 7.2 7.0 6.8 7.0 7.0 6.8 6.1 5.7 6.4 6.6 6.7 6.5 6.9 6.7 6.9 6.2 5.7 6.3 6.7 6.6 6.6 6.4 6.8 6.9 6.5 6.6
4.2 3.9 3.6 3.4 2.4 1.7 1.9 2.2 2.5 2.8 3.4 4.3 5.0 5.6 6.7 6.8 7.1 7.5 7.7 7.6 7.6 7.6 7.5 7.2 6.8 6.9 6.5 6.4 6.4 6.2 6.4 6.6 6.7 6.6 6.4 6.5 6.5 6.0 6.0 6.3 6.4 5.8 6.3 6.6 6.7 6.4 6.7
4.0 3.6 3.0 2.5 2.1 1.8 2.1 2.3 2.6 3.7 4.9 5.6 6.2 6.6 7.2 7.3 7.9 8.2 7.8 8.1 8.0 8.3 8.1 7.8 7.4 6.9 6.7 6.7 6.7 6.6 6.2 6.3 5.6 5.3 6.0 5.8 6.3 6.5 6.3 6.8 6.6 6.3 6.4 6.2 6.5 6.7 6.4
3.6 3.2 2.6 2.2 1.9 2.1 2.3 2.7 3.5 4.6 5.7 6.3 7.3 7.6 8.0 7.8 8.2 8.2 8.3 8.2 8.4 8.2 8.0 7.9 7.7 7.6 6.9 6.5 6.9 6.9 6.6 6.6 6.4 5.9 5.4 5.7 6.0 6.3 6.2 6.6 6.6 7.1 7.1 6.5 6.7 6.8 6.5
3.2 2.8 2.4 2.4 2.6 2.5 2.9 3.9 4.9 5.9 6.4 7.1 7.9 8.4 8.4 8.6 8.6 8.5 8.5 8.4 8.4 8.5 8.3 8.2 8.1 8.0 7.5 7.0 6.8 6.2 6.8 6.6 5.6 6.1 5.2 4.7 5.2 5.8 6.2 6.8 6.9 6.7 6.7 6.8 6.5 6.8 6.5
3.3 2.7 2.6 2.6 2.5 3.0 4.2 5.0 5.6 6.1 6.8 7.8 8.4 8.4 8.2 8.6 8.4 8.4 8.5 8.4 8.2 8.2 8.3 8.3 8.1 7.9 8.1 8.2 7.1 6.7 6.4 6.7 6.4 4.9 5.9 4.2 4.7 5.5 6.2 6.5 7.1 6.2 6.6 6.5 6.8 6.7 6.7
3.1 2.9 2.6 2.6 3.1 4.1 5.0 5.6 6.2 6.8 7.5 8.0 8.1 8.2 8.4 8.1 8.5 8.5 8.3 8.3 8.3 8.3 8.0 8.3 8.3 8.2 8.5 7.7 7.5 7.2 6.8 6.5 7.1 6.4 6.1 5.3 4.8 5.1 5.9 6.3 6.6 6.3 7.5 7.4 6.9 6.8 7.0
2.9 2.7 2.7 3.0 3.8 4.8 5.5 6.1 6.9 7.7 8.1 7.9 8.0 8.2 8.4 8.3 8.4 8.6 8.3 8.3 8.3 8.3 8.3 7.8 8.5 8.4 8.0 7.6 7.1 6.9 6.8 6.9 7.8 8.1 7.4 6.4 5.9 5.1 6.2 6.8 6.6 6.7 7.0 7.6 6.9 6.8 7.4
2.8 2.8 3.1 3.7 4.5 5.3 5.8 6.5 7.5 8.2 8.1 8.0 8.1 8.3 8.3 8.2 8.6 8.3 8.3 8.5 8.2 8.1 8.1 8.4 8.5 8.4 8.0 7.6 7.0 6.8 6.8 7.4 7.8 8.7 8.2 7.6 6.4 5.2 6.2 6.8 6.8 7.3 7.6 7.6 7.3 6.4 7.3
2.8 3.0 3.6 4.3 5.1 5.4 6.0 6.9 7.9 8.1 8.2 8.1 8.4 8.3 8.3 8.2 8.7 8.4 8.2 8.0 8.2 8.1 7.6 7.7 7.9 7.8 8.3 7.6 6.9 6.8 6.5 6.9 7.5 8.0 8.1 7.0 6.4 4.9 5.5 6.6 6.4 7.2 7.3 7.7 7.3 7.1 8.0
2.9 3.4 4.2 4.8 5.3 5.7 6.3 7.3 8.0 8.0 8.1 7.9 8.2 8.3 8.2 8.2 8.7 8.5 8.4 8.2 8.1 7.9 7.5 7.4 7.0 7.7 7.7 7.3 7.3 7.1 6.8 7.6 7.5 7.4 7.7 7.4 6.8 5.5 5.3 6.1 6.2 7.4 7.1 6.9 7.7 7.9 8.2
3.4 4.0 4.5 5.1 5.6 6.0 6.8 7.7 8.1 8.1 8.1 7.9 8.0 8.1 8.1 8.1 8.4 8.2 8.5 8.5 7.6 7.8 7.1 7.3 7.4 7.3 6.9 7.1 7.1 7.1 7.1 6.8 7.0 6.8 7.4 7.2 6.9 7.2 6.1 6.4 7.5 8.1 7.5 7.3 7.8 8.1 8.2
Wind_Speed
15 16 15 16 17 17 18 18 18 19 20 20 20 20 22 23 23 24 24 26 26 24 23 21 15 14 3 4 11 12 12 5 16 9 9 6 5 4 5 7 5 7 5 6 13 6 10
14 15 17 17 17 17 18 18 19 19 20 20 21 22 23 24 26 26 27 27 27 26 25 22 20 11 4 15 5 12 13 5 8 10 7 8 6 6 5 6 13 6 14 11 7 9 6
14 15 16 17 16 18 19 20 21 21 22 23 24 24 25 27 27 28 30 32 31 29 27 25 22 10 12 23 4 2 2 6 6 13 9 8 7 3 1 5 9 13 5 5 9 6 7
15 16 17 16 18 18 20 21 21 22 22 23 24 25 27 28 29 31 32 35 36 35 31 26 21 12 11 7 25 21 14 5 4 8 13 7 7 6 4 5 3 6 5 11 10 9 5
15 15 16 17 18 18 18 19 21 22 23 24 26 27 30 31 33 35 39 42 36 30 24 18 10 7 10 5 11 18 10 9 6 4 6 5 6 6 4 6 4 4 9 14 3 12 7
15 15 17 18 18 19 20 22 22 23 24 26 28 29 31 33 35 37 42 40 23 9 4 7 3 5 6 6 4 5 12 12 5 8 4 7 6 5 8 8 17 8 10 5 15 10 13
16 17 18 18 20 20 22 23 22 24 26 28 29 30 32 33 35 39 18 5 5 4 4 7 6 6 7 4 2 4 6 10 7 5 13 6 8 15 15 16 10 9 9 14 6 9 14
14 15 17 18 19 21 21 22 23 24 24 26 29 31 32 35 39 29 6 4 5 7 14 19 24 24 26 2 5 4 12 11 12 16 13 5 19 17 8 8 13 13 6 10 5 5 12
15 15 17 19 20 21 23 23 24 24 25 26 28 30 32 34 37 5 11 4 12 12 7 11 16 13 12 20 21 13 14 7 16 20 19 21 5 13 11 11 14 21 16 7 6 3 7
16 18 20 19 21 22 23 24 25 24 26 27 29 32 32 36 8 8 7 5 18 11 5 7 5 7 6 7 6 24 15 12 7 21 14 15 19 6 17 19 16 20 16 18 15 7 7
18 20 20 22 22 23 24 25 26 25 24 24 27 31 30 27 7 3 6 16 16 2 5 5 4 2 4 10 2 4 24 7 17 8 9 9 11 19 18 15 16 14 7 13 17 11 3
19 20 23 24 24 26 26 27 26 25 25 26 26 32 33 11 2 7 16 13 2 1 10 6 3 3 4 4 4 3 10 2 5 7 4 11 7 10 9 14 16 3 10 6 11 11 11
20 18 21 23 22 23 25 26 28 27 25 25 25 29 24 9 4 14 10 4 3 6 4 5 3 4 6 4 4 4 13 18 13 12 14 5 11 3 6 8 10 11 6 6 10 8 9
21 22 20 22 24 25 25 28 28 28 26 25 24 26 15 9 12 8 4 2 9 3 7 7 8 15 6 4 6 7 8 14 17 3 2 12 9 17 12 18 8 19 17 6 6 6 6
22 23 21 20 23 23 26 26 26 27 27 24 18 4 5 4 3 1 4 4 3 6 8 13 16 4 4 2 4 3 8 12 13 19 10 7 8 7 11 9 18 8 16 15 4 3 2
21 22 21 21 22 25 26 28 25 27 24 21 2 4 4 4 10 3 3 6 6 7 13 10 5 4 6 6 6 5 8 5 12 19 18 5 4 6 5 8 12 8 10 9 7 5 4
22 22 21 22 24 24 25 25 24 26 23 16 3 4 3 9 3 4 2 4 3 4 3 4 10 10 8 7 4 4 6 7 10 6 16 17 3 3 6 7 18 7 7 6 3 3 3
22 23 23 23 24 25 25 26 25 24 21 5 1 2 3 3 3 0 2 2 5 4 6 5 5 4 5 10 7 4 5 0 20 13 3 10 4 9 13 3 4 17 14 6 6 5 4
23 22 23 24 25 24 24 24 23 22 19 1 2 4 2 4 1 3 4 3 5 4 6 4 5 3 4 6 6 10 15 14 14 18 10 7 4 3 1 2 3 7 10 14 5 1 7
22 22 24 23 24 25 25 25 23 21 18 1 2 3 3 2 1 4 2 6 3 4 11 4 7 8 10 5 3 11 6 8 18 12 18 6 4 4 6 4 7 6 17 13 12 4 4
22 23 24 25 26 26 23 24 23 21 18 1 2 3 3 3 3 6 4 3 13 6 4 1 3 6 6 3 10 3 15 18 14 12 5 7 5 5 10 16 6 5 14 19 16 18 9
23 24 25 26 26 27 26 22 20 23 17 2 2 2 3 2 2 7 7 4 7 7 4 4 6 8 6 5 8 16 14 11 7 8 9 4 5 10 8 14 18 9 9 16 20 20 18
22 23 24 24 26 25 25 24 23 21 14 3 1 2 1 4 2 3 4 4 6 5 7 9 7 4 12 14 10 9 9 12 15 13 17 4 3 5 6 8 7 13 22 9 15 18 18
22 24 24 24 24 26 25 24 23 21 17 2 3 3 3 2 3 6 8 8 14 14 13 15 9 9 9 5 7 7 9 18 22 19 18 10 7 4 7 8 7 6 11 21 17 17 17
22 20 23 25 26 27 27 27 26 23 22 3 3 3 2 3 5 9 12 12 11 10 12 13 15 15 10 4 4 6 6 7 11 19 20 20 11 4 4 5 9 7 4 11 13 25 14
22 22 23 26 26 27 27 27 25 23 23 6 2 3 3 3 5 6 6 4 6 5 4 8 8 2 3 2 4 4 4 4 6 3 11 15 16 8 6 5 6 6 4 3 6 14 8
23 23 24 25 25 26 27 27 27 27 23 8 3 7 3 2 5 4 4 4 3 1 3 3 4 3 4 4 5 6 7 5 5 4 5 6 8 17 12 9 6 8 6 6 7 5 3
24 25 26 26 27 27 29 29 29 28 26 10 4 9 3 2 6 8 6 6 2 3 9 3 3 3 0 3 3 3 4 1 2 5 4 5 8 7 8 11 14 3 3 3 3 6 5
27 28 29 29 30 31 31 33 31 29 28 23 3 3 5 4 6 7 15 16 13 21 8 5 6 3 3 1 2 3 4 3 3 3 3 4 6 3 11 7 2 2 1 6 5 6 5
Wind_Direction
28 34 30 21 17 15 14 13 10 6 360 356 353 350 345 338 336 333 325 317 313 309 309 315 308 304 316 243 242 262 299 262 191 149 185 181 182 187 207 199 184 223 242 220 237 223 216
30 24 23 18 18 15 11 6 3 0 356 351 348 345 344 339 332 328 322 313 310 305 296 298 301 295 233 254 247 237 235 244 180 172 186 176 206 209 243 230 201 210 220 232 220 215 221
30 27 21 18 15 10 7 5 2 358 353 352 349 345 339 336 332 326 320 315 307 300 295 289 285 275 237 236 223 221 353 212 186 184 187 195 207 177 240 262 224 227 250 251 234 209 218
29 24 19 14 10 8 3 2 357 354 352 350 348 345 340 335 332 327 320 313 301 292 286 280 275 259 248 226 244 249 255 280 221 198 200 177 179 211 221 311 258 183 190 240 235 197 234
26 20 13 8 4 0 359 356 352 350 349 346 344 342 338 335 333 328 323 311 299 289 278 266 255 212 258 275 230 234 194 201 182 172 185 145 132 186 169 215 244 222 231 227 254 202 179
12 10 7 359 357 353 351 349 347 346 344 344 342 340 338 334 332 329 324 312 298 303 242 223 175 217 258 230 210 203 186 180 159 146 171 194 201 201 194 193 229 210 224 221 216 201 209
5 1 356 354 354 349 347 343 342 343 343 342 341 340 338 337 335 331 337 335 11 355 352 217 221 240 285 234 242 213 162 157 126 165 193 193 209 212 219 211 243 268 213 225 223 213 191
356 352 354 348 345 344 343 340 339 336 339 339 337 337 338 337 335 334 11 1 58 289 290 231 244 245 246 287 313 227 146 160 182 201 187 190 225 222 212 235 228 228 237 252 295 248 205
345 346 343 340 338 339 336 334 331 333 335 333 333 333 335 336 330 10 330 253 356 344 268 280 222 230 233 216 237 241 180 172 197 208 195 213 227 203 204 213 222 237 234 241 248 321 230
344 343 338 336 334 332 329 328 329 329 331 332 329 327 333 338 357 328 298 309 335 322 283 279 241 250 187 166 259 215 203 180 204 209 198 226 222 184 206 220 204 237 228 240 242 267 242
337 339 332 330 325 328 329 328 324 330 328 329 329 324 330 337 290 312 264 317 321 257 308 263 249 152 170 169 257 233 196 210 197 165 172 201 185 211 224 214 209 240 188 212 228 230 241
333 335 331 334 335 333 330 330 327 325 326 330 331 323 326 330 304 252 297 309 311 325 244 290 228 167 147 253 293 61 171 214 142 181 249 220 191 194 203 214 201 172 245 271 233 226 235
331 331 331 329 329 328 335 335 330 327 327 327 330 322 320 317 267 322 323 335 201 217 274 294 342 13 256 233 224 165 179 195 194 203 217 197 225 213 176 211 194 193 178 232 214 206 227
329 325 331 332 329 332 337 333 333 329 326 325 330 318 302 278 265 303 27 275 234 271 285 3 356 311 240 193 245 193 166 201 221 187 160 214 239 206 201 208 182 199 203 216 236 188 194
328 333 330 332 330 331 334 333 332 328 327 329 332 296 291 260 274 4 62 273 278 352 352 322 320 316 305 19 360 173 185 207 213 209 207 186 235 249 207 185 185 178 210 203 268 300 118
334 331 333 330 331 337 333 331 332 329 330 334 317 325 277 280 327 91 96 255 273 21 341 339 310 316 304 338 335 315 176 212 214 215 213 223 266 226 227 173 197 175 171 190 225 211 206
332 331 331 332 334 333 328 331 328 329 331 338 40 332 274 332 71 69 181 244 298 314 16 330 324 306 289 321 281 304 314 353 357 351 222 221 220 258 119 186 192 174 195 210 173 185 203
338 336 335 334 331 330 334 329 334 333 335 44 37 287 304 1 9 333 241 215 284 279 288 271 268 359 338 327 313 305 257 78 21 323 322 218 221 224 230 235 209 211 204 190 202 189 186
342 340 338 337 333 330 330 329 331 331 332 292 279 269 324 71 247 309 303 267 264 315 317 309 294 334 324 324 320 354 342 320 355 354 3 352 255 204 209 245 192 195 210 196 151 334 191
337 338 337 335 333 334 331 330 329 329 324 78 278 300 311 44 91 131 324 289 277 302 289 255 293 298 316 312 313 295 304 328 327 321 322 260 261 268 234 262 146 201 212 202 201 209 172
337 337 337 338 336 335 331 334 329 323 325 80 225 226 192 279 273 231 205 241 284 280 264 280 295 266 314 294 317 312 323 319 323 332 29 11 289 283 270 271 256 214 199 205 205 222 203
335 337 340 340 337 334 332 330 325 324 329 195 253 266 195 261 234 262 245 223 251 279 207 263 254 283 286 268 277 292 308 302 273 307 345 40 301 326 290 253 249 240 223 203 211 221 242
330 332 333 340 340 340 337 333 327 324 334 248 230 280 243 245 206 226 248 231 253 260 234 253 263 305 293 284 279 280 280 275 261 266 281 287 263 317 282 332 224 246 228 210 220 225 219
329 327 330 335 336 334 335 333 328 323 319 205 222 275 294 283 219 248 256 257 272 261 260 281 271 256 259 347 307 283 253 257 259 245 230 231 236 258 286 328 225 261 189 217 221 232 226
341 333 331 333 334 333 332 328 326 319 312 230 229 218 254 253 251 272 255 259 265 269 269 274 269 254 287 324 292 293 284 260 240 226 214 208 205 261 269 272 300 313 225 187 196 239 220
350 343 335 335 332 331 330 329 323 322 320 309 251 177 236 270 243 241 287 249 263 261 292 252 269 288 134 249 244 240 254 302 289 293 205 198 205 215 199 242 251 241 232 114 103 254 212
348 344 338 332 333 332 330 328 323 318 315 307 247 195 235 255 253 168 215 253 209 201 236 293 283 329 188 230 248 248 252 269 273 266 158 157 191 218 217 239 285 266 322 324 128 240 17
340 337 332 330 323 325 322 320 320 319 315 313 249 194 207 258 261 215 230 222 300 205 253 252 324 323 2 240 253 212 234 237 285 281 280 185 180 193 228 217 244 18 360 186 318 316 313
334 332 327 325 320 322 318 315 318 319 317 310 252 228 178 225 250 228 249 243 218 242 248 208 227 192 249 165 283 325 312 299 255 266 299 267 226 255 194 200 216 128 187 290 297 271 293